• In Hungary
  • List of Countries
  • For 7 days
  • Water Temperature
  • Satellite Maps
  • Weather Map
  • News
  • Weather Widgets
  • user-avatar
    Login

    Hourly Weather Leknes

    Today, 21 October, Sunday

    Time Temperature Precipitation Wind Pressure Humidity
    00:00 +2°C° 1 mm 19 mps 725 mmHg 75%
    01:00 +2°C° 1 mm 20 mps 724 mmHg 75%
    02:00 +3°C° 0.8 mm 19 mps 724 mmHg 78%
    03:00 +3°C° 0.8 mm 18 mps 724 mmHg 81%
    04:00 +4°C° 0.8 mm 16 mps 723 mmHg 84%
    05:00 +3°C° 0.2 mm 17 mps 723 mmHg 82%
    06:00 +3°C° 0.2 mm 17 mps 723 mmHg 80%
    07:00 +3°C° 0.2 mm 17 mps 722 mmHg 78%
    08:00 +3°C° 0.5 mm 18 mps 722 mmHg 77%
    09:00 +3°C° 0.5 mm 19 mps 722 mmHg 75%
    10:00 +3°C° 0.5 mm 20 mps 722 mmHg 74%
    11:00 +3°C° 0.3 mm 20 mps 722 mmHg 73%
    12:00 +3°C° 0.3 mm 20 mps 721 mmHg 71%
    13:00 +3°C° 0.3 mm 20 mps 721 mmHg 70%
    14:00 +2°C° 0.2 mm 19 mps 721 mmHg 70%
    15:00 +2°C° 0.2 mm 19 mps 721 mmHg 70%
    16:00 +2°C° 0.2 mm 19 mps 722 mmHg 70%
    17:00 +2°C° 0.3 mm 18 mps 721 mmHg 69%
    18:00 +2°C° 0.3 mm 18 mps 721 mmHg 68%
    19:00 +2°C° 0.3 mm 18 mps 721 mmHg 67%
    20:00 +1°C° 0.3 mm 18 mps 721 mmHg 66%
    21:00 +1°C° 0.3 mm 17 mps 721 mmHg 65%
    22:00 +1°C° 0.3 mm 17 mps 721 mmHg 65%
    23:00 +1°C° 0.2 mm 17 mps 721 mmHg 66%

    Tomorrow, 22 October, Monday

    Time Temperature Precipitation Wind Pressure Humidity
    00:00 +1°C° 0.2 mm 17 mps 721 mmHg 66%
    01:00 0°C° 0.2 mm 16 mps 720 mmHg 67%
    02:00 0°C° 0.2 mm 15 mps 720 mmHg 68%
    03:00 0°C° 0.2 mm 15 mps 720 mmHg 70%
    04:00 0°C° 0.2 mm 14 mps 719 mmHg 71%
    05:00 0°C° 0.3 mm 14 mps 719 mmHg 71%
    06:00 -1°C° 0.3 mm 13 mps 719 mmHg 71%
    07:00 -1°C° 0.3 mm 12 mps 718 mmHg 70%
    08:00 -1°C° 0.2 mm 13 mps 718 mmHg 73%
    09:00 -1°C° 0.2 mm 13 mps 718 mmHg 75%
    10:00 -1°C° 0.2 mm 13 mps 718 mmHg 78%
    11:00 -1°C° 0.4 mm 13 mps 719 mmHg 78%
    12:00 0°C° 0.4 mm 14 mps 719 mmHg 78%
    13:00 0°C° 0.4 mm 14 mps 719 mmHg 78%
    14:00 0°C° 0.4 mm 15 mps 720 mmHg 76%
    15:00 0°C° 0.4 mm 15 mps 720 mmHg 75%
    16:00 0°C° 0.4 mm 16 mps 720 mmHg 74%
    17:00 0°C° 0.2 mm 16 mps 720 mmHg 73%
    18:00 0°C° 0.2 mm 16 mps 721 mmHg 71%
    19:00 0°C° 0.2 mm 15 mps 721 mmHg 70%
    20:00 0°C° 0.1 mm 15 mps 720 mmHg 70%
    21:00 -1°C° 0.1 mm 14 mps 720 mmHg 70%
    22:00 -1°C° 0.1 mm 14 mps 720 mmHg 70%
    23:00 -1°C° 0.1 mm 13 mps 720 mmHg 72%

    Day after tomorrow, 23 October, Tuesday

    Time Temperature Precipitation Wind Pressure Humidity
    00:00 -1°C° 0.1 mm 12 mps 719 mmHg 73%
    01:00 -1°C° 0.1 mm 12 mps 719 mmHg 75%
    02:00 -1°C° 0.1 mm 11 mps 718 mmHg 76%
    03:00 -2°C° 0.1 mm 11 mps 718 mmHg 77%
    04:00 -2°C° 0.1 mm 10 mps 718 mmHg 78%
    05:00 -2°C° 0.1 mm 10 mps 718 mmHg 78%
    06:00 -2°C° 0.1 mm 10 mps 718 mmHg 79%
    07:00 -2°C° 0.1 mm 10 mps 717 mmHg 79%
    08:00 -2°C° 0.3 mm 10 mps 718 mmHg 79%
    09:00 -1°C° 0.3 mm 9 mps 718 mmHg 79%
    10:00 -1°C° 0.3 mm 9 mps 718 mmHg 78%
    11:00 -1°C° 0.3 mm 9 mps 718 mmHg 78%
    12:00 0°C° 0.3 mm 9 mps 718 mmHg 77%
    13:00 0°C° 0.3 mm 10 mps 719 mmHg 77%
    14:00 0°C° 0.3 mm 10 mps 719 mmHg 76%
    15:00 0°C° 0.3 mm 10 mps 719 mmHg 75%
    16:00 0°C° 0.3 mm 10 mps 719 mmHg 74%
    17:00 -1°C° 0.4 mm 11 mps 719 mmHg 75%
    18:00 -1°C° 0.4 mm 11 mps 719 mmHg 76%
    19:00 -1°C° 0.4 mm 12 mps 719 mmHg 78%
    20:00 -1°C° 0.7 mm 12 mps 719 mmHg 81%
    21:00 -1°C° 0.7 mm 13 mps 719 mmHg 85%
    22:00 -1°C° 0.7 mm 13 mps 719 mmHg 88%
    23:00 0°C° 0.5 mm 14 mps 719 mmHg 86%

    24 October, Wednesday

    Time Temperature Precipitation Wind Pressure Humidity
    00:00 0°C° 0.5 mm 14 mps 719 mmHg 85%
    01:00 +1°C° 0.5 mm 15 mps 719 mmHg 83%
    02:00 +1°C° 0.4 mm 15 mps 719 mmHg 83%
    03:00 +1°C° 0.4 mm 16 mps 719 mmHg 82%
    04:00 +1°C° 0.4 mm 17 mps 719 mmHg 81%
    05:00 +1°C° 0.4 mm 16 mps 719 mmHg 81%
    06:00 +1°C° 0.4 mm 16 mps 720 mmHg 82%
    07:00 +1°C° 0.4 mm 16 mps 720 mmHg 83%
    08:00 +1°C° 0.2 mm 15 mps 721 mmHg 83%
    09:00 +1°C° 0.2 mm 14 mps 722 mmHg 82%
    10:00 +1°C° 0.2 mm 13 mps 723 mmHg 82%
    11:00 +2°C° 0.3 mm 12 mps 723 mmHg 82%
    12:00 +2°C° 0.3 mm 12 mps 724 mmHg 82%
    13:00 +2°C° 0.3 mm 11 mps 724 mmHg 82%
    14:00 +2°C° 0.3 mm 10 mps 724 mmHg 82%
    15:00 +1°C° 0.3 mm 10 mps 725 mmHg 83%
    16:00 +1°C° 0.3 mm 9 mps 725 mmHg 84%
    17:00 +1°C° 0.3 mm 9 mps 725 mmHg 85%
    18:00 +1°C° 0.3 mm 8 mps 725 mmHg 85%
    19:00 +1°C° 0.3 mm 8 mps 725 mmHg 86%
    20:00 +1°C° 0.2 mm 8 mps 725 mmHg 85%
    21:00 0°C° 0.2 mm 7 mps 725 mmHg 85%
    22:00 0°C° 0.2 mm 7 mps 725 mmHg 84%
    23:00 0°C° 0.1 mm 7 mps 725 mmHg 84%

    25 October, Thursday

    Time Temperature Precipitation Wind Pressure Humidity
    00:00 0°C° 0.1 mm 7 mps 725 mmHg 84%
    01:00 -1°C° 0.1 mm 7 mps 725 mmHg 84%
    02:00 -1°C° 0.2 mm 7 mps 725 mmHg 84%
    03:00 -1°C° 0.2 mm 7 mps 725 mmHg 84%
    04:00 -1°C° 0.2 mm 7 mps 725 mmHg 83%
    05:00 -1°C° 0.2 mm 7 mps 725 mmHg 83%
    06:00 -1°C° 0.2 mm 7 mps 725 mmHg 83%
    07:00 -1°C° 0.2 mm 7 mps 725 mmHg 83%
    08:00 -1°C° 0.2 mm 7 mps 726 mmHg 83%
    09:00 -1°C° 0.2 mm 7 mps 726 mmHg 83%
    10:00 -1°C° 0.2 mm 7 mps 726 mmHg 82%
    11:00 -1°C° 0.2 mm 6 mps 726 mmHg 82%
    12:00 +1°C° 0.2 mm 6 mps 726 mmHg 82%
    13:00 +1°C° 0.2 mm 6 mps 726 mmHg 81%
    14:00 -1°C° 0.2 mm 6 mps 726 mmHg 81%
    15:00 -1°C° 0.2 mm 6 mps 726 mmHg 80%
    16:00 -1°C° 0.2 mm 6 mps 726 mmHg 80%
    17:00 -1°C° 0.2 mm 5 mps 726 mmHg 80%
    18:00 -1°C° 0.2 mm 5 mps 726 mmHg 79%
    19:00 -1°C° 0.2 mm 5 mps 726 mmHg 79%
    20:00 -1°C° 0.2 mm 5 mps 726 mmHg 79%
    21:00 -1°C° 0.2 mm 5 mps 726 mmHg 80%
    22:00 -1°C° 0.2 mm 5 mps 726 mmHg 80%
    23:00 -1°C° 0.4 mm 5 mps 726 mmHg 81%

    26 October, Friday

    Time Temperature Precipitation Wind Pressure Humidity
    00:00 -2°C° 0.4 mm 6 mps 726 mmHg 82%
    01:00 -2°C° 0.4 mm 6 mps 726 mmHg 83%
    02:00 -2°C° 0.5 mm 7 mps 727 mmHg 83%
    03:00 -2°C° 0.5 mm 8 mps 727 mmHg 83%
    04:00 -2°C° 0.5 mm 8 mps 727 mmHg 83%
    05:00 -2°C° 0.2 mm 8 mps 727 mmHg 83%
    06:00 -2°C° 0.2 mm 8 mps 727 mmHg 84%
    07:00 -4°C° 0.2 mm 8 mps 728 mmHg 84%
    08:00 -4°C° 0.1 mm 8 mps 728 mmHg 83%
    09:00 -2°C° 0.1 mm 7 mps 728 mmHg 82%
    10:00 -2°C° 0.1 mm 7 mps 728 mmHg 82%
    11:00 -2°C° 0 mm 7 mps 729 mmHg 81%
    12:00 -2°C° 0 mm 7 mps 729 mmHg 79%
    13:00 -2°C° 0 mm 6 mps 729 mmHg 78%
    14:00 -2°C° 0.1 mm 7 mps 729 mmHg 77%
    15:00 -3°C° 0.1 mm 7 mps 729 mmHg 76%
    16:00 -3°C° 0.1 mm 7 mps 729 mmHg 76%
    17:00 -3°C° 0.2 mm 7 mps 729 mmHg 75%
    18:00 -4°C° 0.2 mm 8 mps 728 mmHg 74%
    19:00 -4°C° 0.2 mm 8 mps 728 mmHg 73%
    20:00 -4°C° 0.2 mm 8 mps 728 mmHg 74%
    21:00 -4°C° 0.2 mm 8 mps 728 mmHg 74%
    22:00 -4°C° 0.2 mm 9 mps 728 mmHg 74%
    23:00 -2°C° 0.5 mm 8 mps 728 mmHg 75%
    Show more